User: anonymous   Login
Location: Caribou
(46.8667°N, 68.0167°W)
Time: 08:14:31
(UTC-04:00)
Language:

SL-08 RB Rocket - Orbit

View from above orbital plane
View from above orbital plane
View from above satellite
View from above satellite

Ground track
Ground track

The orbit data is extracted from the following two-line orbital elements,

1 26387U 00033D   14293.77493684  .00001310  00000-0  23886-3 0  6441
2 26387 098.0932 000.0507 0027381 173.5497 296.8178 14.67440480765500
Epoch (UTC): 20 October 2014 18:35:54
Eccentricity: 0.0027381
inclination: 98.0932°
perigee height: 650 km
apogee height: 688 km
right ascension of ascending node: 0.0507°
argument of perigee: 173.5497°
revolutions per day: 14.67440480
mean anomaly at epoch: 296.8178°
orbit number at epoch: 76550

The dashed part of the orbit path shows where the satellite is in the earth's shadow,  

DLR